Regional Weather Roundup
Issued by NWS Charleston, SC

Current Version | Previous Version | Text Only | Print | Product List | Glossary Off
Versions: 1 2 3 4 5 6 7 8 9 10 11 12 13 14 15 16 17 18 19 20 21 22 23 24 25 26 27 28 29 30 31 32 33 34 35 36 37 38 39 40 41 42 43 44 45 46 47 48 49 50
243 ASUS42 KCHS 221927 RWRCHS Regional Weather Roundup National Weather Service Charleston SC 200 PM EST THU FEB 22 2018 NOTE: "fair" indicates few or no clouds below 12,000 feet with no significant weather and/or obstructions to visibility. Not all stations are quality controlled. Use data with caution, especially dewpoint observations. SCZ027-030-031-034>040-042>050-222000- ...Southeast South Carolina... CITY SKY/WX TMP DP RH WIND PRES REMARKS N Charleston FAIR 81 57 43 VRB6 30.43F Waterfront Prk N/A 74 61 63 SW5 30.29F Mount Pleasant FAIR 79 61 53 S10 30.43F Johns Island FAIR 79 59 50 S10 30.43F Pinopolis N/A 66 64 94 N7 30.36F Moncks Corner MOCLDY 79 54 41 SW6 30.42F Summerville FAIR 77 59 53 W7 30.43F Beaufort MCAS FAIR 80 63 55 SE7 30.43F Beaufort Arpt FAIR 77 57 50 SW6 30.43F Hilton Head Is MOSUNNY 77 61 57 S7 30.45F Walterboro FAIR 79 61 53 SE5 30.43F Allendale CLOUDY 77 61 57 SE3 30.42F ...Southern Midlands and Pee Dee... CITY SKY/WX TMP DP RH WIND PRES REMARKS Georgetown FAIR 79 57 47 S6 30.44F Kingstree CLOUDY 77 59 53 SW5 30.42F Orangeburg CLOUDY 76 61 59 SW7 30.43F Barnwell N/A 81 63 54 CALM 30.42F Aiken MOCLDY 77 61 57 S7 30.45F Manning FAIR 77 10 8 MISG 30.43F Columbia PTSUNNY 80 63 55 S5 30.41F Sumter PTSUNNY 76 62 59 S9 30.41F Florence CLOUDY 77 62 59 CALM 30.43F Myrtle Beach FAIR 74 63 68 S10 30.45F N Myrtle Beach FAIR 74 63 68 S8 30.44F $$ GAZ063-065-086>088-099>101-113>116-118-119-134>141-150-222000- ...Southeast Georgia... CITY SKY/WX TMP DP RH WIND PRES REMARKS Savannah Arpt FAIR 81 59 47 SE6 30.42F Hunter AAF FAIR 78 70 76 SE6 30.40F Fort Stewart PTSUNNY 80 60 50 NE8 30.40F Statesboro PTSUNNY 79 55 42 E5 30.42F Sylvania FAIR 80 64 57 S6 30.43F Claxton CLOUDY 83 60 46 E6 30.41F ...CSRA, Central and far Southeast Georgia... CITY SKY/WX TMP DP RH WIND PRES REMARKS Thomson PTSUNNY 80 63 56 W6 30.46F Augusta-Bush FAIR 80 64 58 SE5 30.41F Augusta-Daniel PTSUNNY 80 63 55 VRB5 30.42F Swainsboro MOCLDY 79 63 57 SW3 30.42F Vidalia FAIR 82 61 47 S5 30.41F Eastman CLOUDY 79 54 42 SE3 30.44F Hazlehurst MOCLDY 79 55 43 CALM 30.40F Alma PTSUNNY 82 59 45 VRB6 30.40F Waycross FAIR 82 54 37 SE7 30.39F Jesup FAIR 82 55 39 E6 30.40F Baxley CLOUDY 77 57 50 S3 30.40F Brunswick FAIR 79 61 53 SE12 30.42F Saint Simons FAIR 77 65 66 E7 30.42F $$ SCZ027-028-034-036>038-045-046-048>050-GAZ119-141-222000- ...Lake and Supplemental Coastal Observations... STATION/POSITION TIME TEMP WIND PRES WAVE SWELL AIR SEA DIR/SP/G HT/PER HT/PER/DIR (UTC) (F) (DEG/KT/KT) (MB) (FT/S) (FT/S/D) Winyah Bay 1845 71 140/ 8 1031.0F Lake Murray 1820 75 140/ 1/ 3 1029.5F ACE Basin NERRS 1845 77 170/ 2 1031.0F Fort Pulaski 1900 75 61 170/ 5/ 7 1030.9 Sapelo Island 1900 78 110/ 6 1030.0 $$ ANZ835-935-AMZ111-154-330-350-352-354-370-450-454-472-222000- ...C-MAN and Buoy Observations... STATION/POSITION TIME TEMP WIND PRES WAVE SWELL AIR SEA DIR/SP/G HT/PER HT/PER/DIR (UTC) (F) (DEG/KT/KT) (MB) (FT/S) (FT/S/D) Buoy 41004 1910 71 68 310/ 4/ 6 1030.7 Buoy 41008 1850 63 61 30/ 4/ 4 1030.5F 4/ 8 3/140/ 8 Folly Beach CMAN 1900 67 140/ 6/ 6 1031.6F Capers Nearshore 1808 68 60 100/ 2/ 4 1031.3F Fripp Nearshore 1808 67 61 80/ 4/ 6 1031.0F STATION/POSITION TIME TEMP WIND PRES WAVE SWELL AIR SEA DIR/SP/G HT/PER HT/PER/DIR (UTC) (F) (DEG/KT/KT) (MB) (FT/S) (FT/S/D) 5E St. Marys GA 1900 65 N/A 3/ 8 2/ 80/14 Frying Pan Buoy 1910 72 71 220/ 4/ 4 1031.1 Buoy 41025 1910 73 73 200/ 16/ 17 1031.2 Cape Lookout NC 1900 230/ 8/ 11 1031.3F Buoy 41002 1850 72 74 120/ 8/ 10 1032.0F 6/ 8 5/110/ 8 Buoy 41010 NOT AVBL St Augustine FL 1900 70 67 70/ 4/ 5 1029.8F $$

USA.gov is the U.S. government's official web portal to all federal, state and local government web resources and services.